Simultaneous Nadir Overpasses (SNOs) Predictions

Prediction of SNOs between METOP-B and NOAA-19 Satellite Orbit:

Table of predicted SNOs for the next 14.0 days since TLE Epoch: 5/8/2021
Index Date (METOP-B) Time (METOP-B) Lat,Lon (METOP-B) SZA (METOP-B ) Date (NOAA-19) Time (NOAA-19) Lat,Lon (NOAA-19) SZA (NOAA-19 ) Distance(km) Time Diff (sec)
1 05/08/2021 20:45:13 -80.61, 78.46 115.38 05/08/2021 20:44:06 -80.57, 75.10 115.72 61.20 67
2 05/08/2021 21:35:59 80.49,-115.94 64.36 05/08/2021 21:35:04 80.50,-116.06 64.35 2.76 55
3 05/08/2021 22:26:40 -80.48, 51.34 115.66 05/08/2021 22:26:01 -80.49, 51.46 115.66 2.32 39
4 05/08/2021 23:17:21 80.48,-141.39 64.33 05/08/2021 23:17:04 80.49,-141.43 64.33 1.85 17
5 05/09/2021 00:08:01 -80.50, 26.22 115.64 05/09/2021 00:08:01 -80.48, 26.09 115.67 2.97 0
6 05/09/2021 00:58:43 80.47,-166.85 64.29 05/09/2021 00:59:04 80.49,-166.80 64.32 2.15 21
7 05/09/2021 01:49:23 -80.49, 0.76 115.68 05/09/2021 01:50:01 -80.47, 0.72 115.68 1.83 38
8 05/09/2021 02:40:05 80.46, 167.70 64.26 05/09/2021 02:41:04 80.48, 167.83 64.31 3.33 59
9 05/09/2021 03:30:47 -80.43, -25.35 115.81 05/09/2021 03:31:59 -80.43, -23.97 115.67 25.39 72
10 05/20/2021 00:30:54 80.49,-159.55 61.74 05/20/2021 00:29:58 80.50,-159.44 61.74 2.24 56
11 05/20/2021 01:21:35 -80.50, 7.88 118.26 05/20/2021 01:20:54 -80.51, 7.73 118.28 2.85 41
12 05/20/2021 02:12:15 80.51, 175.32 61.75 05/20/2021 02:11:58 80.50, 175.19 61.73 2.85 17
13 05/20/2021 03:02:57 -80.49, -17.57 118.29 05/20/2021 03:02:54 -80.50, -17.64 118.29 1.65 3
14 05/20/2021 03:53:37 80.50, 149.87 61.72 05/20/2021 03:53:58 80.49, 149.81 61.72 1.39 21
15 05/20/2021 04:44:18 -80.48, -43.03 118.32 05/20/2021 04:44:53 -80.50, -43.02 118.30 1.36 35
16 05/20/2021 05:34:58 80.49, 124.41 61.69 05/20/2021 05:35:57 80.49, 124.44 61.71 0.90 59



Historial Predications of SNOs between METOP-B and NOAA-19
